Year,Month,Day,Hour,Minute,Value (Times are PST for temperature in C)
2008,09,14,00,00,16.30
2008,09,14,00,01,16.40
2008,09,14,00,02,16.40
2008,09,14,00,03,16.40
2008,09,14,00,04,16.40
2008,09,14,00,05,16.40
2008,09,14,00,06,16.40
2008,09,14,00,07,16.40
2008,09,14,00,08,16.40
2008,09,14,00,09,16.40
2008,09,14,00,10,16.40
2008,09,14,00,11,16.40
2008,09,14,00,12,16.30
2008,09,14,00,13,16.30
2008,09,14,00,14,16.30
2008,09,14,00,15,16.30
2008,09,14,00,16,16.30
2008,09,14,00,17,16.30
2008,09,14,00,18,16.20
2008,09,14,00,19,16.20
2008,09,14,00,20,16.20
2008,09,14,00,21,16.20
2008,09,14,00,22,16.20
2008,09,14,00,23,16.20
2008,09,14,00,24,16.20
2008,09,14,00,25,16.20
2008,09,14,00,26,16.20
2008,09,14,00,27,16.20
2008,09,14,00,28,16.20
2008,09,14,00,29,16.20
2008,09,14,00,30,16.20
2008,09,14,00,31,16.20
2008,09,14,00,32,16.20
2008,09,14,00,33,16.20
2008,09,14,00,34,16.20
2008,09,14,00,35,16.20
2008,09,14,00,36,16.20
2008,09,14,00,37,16.20
2008,09,14,00,38,16.20
2008,09,14,00,39,16.20
2008,09,14,00,40,16.20
2008,09,14,00,41,16.20
2008,09,14,00,42,16.20
2008,09,14,00,43,16.20
2008,09,14,00,44,16.20
2008,09,14,00,45,16.20
2008,09,14,00,46,16.10
2008,09,14,00,47,16.10
2008,09,14,00,48,16.10
2008,09,14,00,49,16.10
2008,09,14,00,50,16.10
2008,09,14,00,51,16.10
2008,09,14,00,52,16.10
2008,09,14,00,53,16.10
2008,09,14,00,54,16.10
2008,09,14,00,55,16.10
2008,09,14,00,56,16.10
2008,09,14,00,57,16.10
2008,09,14,00,58,16.10
2008,09,14,00,59,16.10
2008,09,14,01,00,16.10
2008,09,14,01,01,16.10
2008,09,14,01,02,16.00
2008,09,14,01,03,16.00
2008,09,14,01,04,16.00
2008,09,14,01,05,16.00
2008,09,14,01,06,16.00
2008,09,14,01,07,16.00
2008,09,14,01,08,16.00
2008,09,14,01,09,16.00
2008,09,14,01,10,15.90
2008,09,14,01,11,15.90
2008,09,14,01,12,15.90
2008,09,14,01,13,15.90
2008,09,14,01,14,15.90
2008,09,14,01,15,15.80
2008,09,14,01,16,15.80
2008,09,14,01,17,15.80
2008,09,14,01,18,15.80
2008,09,14,01,19,15.80
2008,09,14,01,20,15.80
2008,09,14,01,21,15.80
2008,09,14,01,22,15.80
2008,09,14,01,23,15.70
2008,09,14,01,24,15.70
2008,09,14,01,25,15.70
2008,09,14,01,26,15.60
2008,09,14,01,27,15.60
2008,09,14,01,28,15.60
2008,09,14,01,29,15.60
2008,09,14,01,30,15.60
2008,09,14,01,31,15.50
2008,09,14,01,32,15.50
2008,09,14,01,33,15.50
2008,09,14,01,34,15.40
2008,09,14,01,35,15.40
2008,09,14,01,36,15.30
2008,09,14,01,37,15.30
2008,09,14,01,38,15.20
2008,09,14,01,39,15.20
2008,09,14,01,40,15.10
2008,09,14,01,41,15.00
2008,09,14,01,42,15.00
2008,09,14,01,43,15.00
2008,09,14,01,44,15.00
2008,09,14,01,45,15.00
2008,09,14,01,46,15.00
2008,09,14,01,47,15.00
2008,09,14,01,48,15.00
2008,09,14,01,49,15.00
2008,09,14,01,50,15.00
2008,09,14,01,51,15.00
2008,09,14,01,52,14.90
2008,09,14,01,53,14.90
2008,09,14,01,54,14.80
2008,09,14,01,55,14.80
2008,09,14,01,56,14.80
2008,09,14,01,57,14.70
2008,09,14,01,58,14.70
2008,09,14,01,59,14.70
2008,09,14,02,00,14.70
2008,09,14,02,01,14.70
2008,09,14,02,02,14.70
2008,09,14,02,03,14.70
2008,09,14,02,04,14.80
2008,09,14,02,05,14.80
2008,09,14,02,06,14.80
2008,09,14,02,07,14.90
2008,09,14,02,08,14.90
2008,09,14,02,09,15.00
2008,09,14,02,10,15.00
2008,09,14,02,11,15.00
2008,09,14,02,12,15.00
2008,09,14,02,13,15.00
2008,09,14,02,14,15.00
2008,09,14,02,15,15.00
2008,09,14,02,16,15.00
2008,09,14,02,17,15.00
2008,09,14,02,18,15.00
2008,09,14,02,19,15.00
2008,09,14,02,20,15.00
2008,09,14,02,21,15.00
2008,09,14,02,22,15.00
2008,09,14,02,23,15.00
2008,09,14,02,24,15.00
2008,09,14,02,25,15.00
2008,09,14,02,26,15.00
2008,09,14,02,27,15.00
2008,09,14,02,28,15.00
2008,09,14,02,29,15.00
2008,09,14,02,30,15.00
2008,09,14,02,31,15.00
2008,09,14,02,32,15.00
2008,09,14,02,33,15.00
2008,09,14,02,34,15.00
2008,09,14,02,35,15.00
2008,09,14,02,36,15.00
2008,09,14,02,37,15.00
2008,09,14,02,38,15.00
2008,09,14,02,39,15.00
2008,09,14,02,40,15.00
2008,09,14,02,41,14.90
2008,09,14,02,42,14.80
2008,09,14,02,43,14.70
2008,09,14,02,44,14.70
2008,09,14,02,45,14.60
2008,09,14,02,46,14.60
2008,09,14,02,47,14.50
2008,09,14,02,48,14.50
2008,09,14,02,49,14.50
2008,09,14,02,50,14.50
2008,09,14,02,51,14.50
2008,09,14,02,52,14.50
2008,09,14,02,53,14.60
2008,09,14,02,54,14.60
2008,09,14,02,55,14.60
2008,09,14,02,56,14.70
2008,09,14,02,57,14.70
2008,09,14,02,58,14.80
2008,09,14,02,59,14.80
2008,09,14,03,00,14.80
2008,09,14,03,01,14.80
2008,09,14,03,02,14.80
2008,09,14,03,03,14.80
2008,09,14,03,04,14.80
2008,09,14,03,05,14.80
2008,09,14,03,06,14.80
2008,09,14,03,07,14.80
2008,09,14,03,08,14.90
2008,09,14,03,09,14.90
2008,09,14,03,10,14.90
2008,09,14,03,11,15.00
2008,09,14,03,12,15.00
2008,09,14,03,13,15.00
2008,09,14,03,14,15.00
2008,09,14,03,15,15.00
2008,09,14,03,16,15.00
2008,09,14,03,17,14.90
2008,09,14,03,18,14.90
2008,09,14,03,19,14.90
2008,09,14,03,20,14.80
2008,09,14,03,21,14.80
2008,09,14,03,22,14.80
2008,09,14,03,23,14.70
2008,09,14,03,24,14.70
2008,09,14,03,25,14.70
2008,09,14,03,26,14.70
2008,09,14,03,27,14.70
2008,09,14,03,28,14.80
2008,09,14,03,29,14.80
2008,09,14,03,30,14.80
2008,09,14,03,31,14.80
2008,09,14,03,32,14.90
2008,09,14,03,33,14.90
2008,09,14,03,34,14.90
2008,09,14,03,35,14.90
2008,09,14,03,36,14.90
2008,09,14,03,37,14.90
2008,09,14,03,38,14.90
2008,09,14,03,39,14.80
2008,09,14,03,40,14.80
2008,09,14,03,41,14.80
2008,09,14,03,42,14.70
2008,09,14,03,43,14.70
2008,09,14,03,44,14.60
2008,09,14,03,45,14.60
2008,09,14,03,46,14.60
2008,09,14,03,47,14.60
2008,09,14,03,48,14.60
2008,09,14,03,49,14.60
2008,09,14,03,50,14.60
2008,09,14,03,51,14.60
2008,09,14,03,52,14.60
2008,09,14,03,53,14.60
2008,09,14,03,54,14.60
2008,09,14,03,55,14.60
2008,09,14,03,56,14.60
2008,09,14,03,57,14.60
2008,09,14,03,58,14.60
2008,09,14,03,59,14.60
2008,09,14,04,00,14.60
2008,09,14,04,01,14.60
2008,09,14,04,02,14.50
2008,09,14,04,03,14.50
2008,09,14,04,04,14.50
2008,09,14,04,05,14.50
2008,09,14,04,06,14.50
2008,09,14,04,07,14.50
2008,09,14,04,08,14.50
2008,09,14,04,09,14.60
2008,09,14,04,10,14.60
2008,09,14,04,11,14.60
2008,09,14,04,12,14.60
2008,09,14,04,13,14.60
2008,09,14,04,14,14.60
2008,09,14,04,15,14.60
2008,09,14,04,16,14.60
2008,09,14,04,17,14.60
2008,09,14,04,18,14.60
2008,09,14,04,19,14.60
2008,09,14,04,20,14.60
2008,09,14,04,21,14.60
2008,09,14,04,22,14.60
2008,09,14,04,23,14.60
2008,09,14,04,24,14.60
2008,09,14,04,25,14.60
2008,09,14,04,26,14.60
2008,09,14,04,27,14.60
2008,09,14,04,28,14.60
2008,09,14,04,29,14.60
2008,09,14,04,30,14.60
2008,09,14,04,31,14.60
2008,09,14,04,32,14.60
2008,09,14,04,33,14.60
2008,09,14,04,34,14.60
2008,09,14,04,35,14.60
2008,09,14,04,36,14.60
2008,09,14,04,37,14.60
2008,09,14,04,38,14.60
2008,09,14,04,39,14.60
2008,09,14,04,40,14.60
2008,09,14,04,41,14.60
2008,09,14,04,42,14.60
2008,09,14,04,43,14.60
2008,09,14,04,44,14.50
2008,09,14,04,45,14.50
2008,09,14,04,46,14.50
2008,09,14,04,47,14.50
2008,09,14,04,48,14.50
2008,09,14,04,49,14.50
2008,09,14,04,50,14.50
2008,09,14,04,51,14.50
2008,09,14,04,52,14.50
2008,09,14,04,53,14.50
2008,09,14,04,54,14.50
2008,09,14,04,55,14.50
2008,09,14,04,56,14.40
2008,09,14,04,57,14.40
2008,09,14,04,58,14.40
2008,09,14,04,59,14.40
2008,09,14,05,00,14.40
2008,09,14,05,01,14.40
2008,09,14,05,02,14.40
2008,09,14,05,03,14.40
2008,09,14,05,04,14.40
2008,09,14,05,05,14.40
2008,09,14,05,06,14.40
2008,09,14,05,07,14.40
2008,09,14,05,08,14.40
2008,09,14,05,09,14.40
2008,09,14,05,10,14.30
2008,09,14,05,11,14.30
2008,09,14,05,12,14.30
2008,09,14,05,13,14.40
2008,09,14,05,14,14.30
2008,09,14,05,15,14.40
2008,09,14,05,16,14.40
2008,09,14,05,17,14.40
2008,09,14,05,18,14.40
2008,09,14,05,19,14.40
2008,09,14,05,20,14.40
2008,09,14,05,21,14.40
2008,09,14,05,22,14.40
2008,09,14,05,23,14.30
2008,09,14,05,24,14.30
2008,09,14,05,25,14.30
2008,09,14,05,26,14.30
2008,09,14,05,27,14.30
2008,09,14,05,28,14.20
2008,09,14,05,29,14.20
2008,09,14,05,30,14.20
2008,09,14,05,31,14.20
2008,09,14,05,32,14.10
2008,09,14,05,33,14.10
2008,09,14,05,34,14.10
2008,09,14,05,35,14.10
2008,09,14,05,36,14.10
2008,09,14,05,37,14.10
2008,09,14,05,38,14.10
2008,09,14,05,39,14.10
2008,09,14,05,40,14.10
2008,09,14,05,41,14.10
2008,09,14,05,42,14.10
2008,09,14,05,43,14.10
2008,09,14,05,44,14.10
2008,09,14,05,45,14.10
2008,09,14,05,46,14.10
2008,09,14,05,47,14.10
2008,09,14,05,48,14.10
2008,09,14,05,49,14.10
2008,09,14,05,50,14.10
2008,09,14,05,51,14.10
2008,09,14,05,52,14.10
2008,09,14,05,53,14.10
2008,09,14,05,54,14.10
2008,09,14,05,55,14.10
2008,09,14,05,56,14.10
2008,09,14,05,57,14.10
2008,09,14,05,58,14.10
2008,09,14,05,59,14.10
2008,09,14,06,00,14.20
2008,09,14,06,01,14.20
2008,09,14,06,02,14.20
2008,09,14,06,03,14.20
2008,09,14,06,04,14.20
2008,09,14,06,05,14.20
2008,09,14,06,06,14.20
2008,09,14,06,07,14.20
2008,09,14,06,08,14.20
2008,09,14,06,09,14.20
2008,09,14,06,10,14.20
2008,09,14,06,11,14.20
2008,09,14,06,12,14.30
2008,09,14,06,13,14.30
2008,09,14,06,14,14.30
2008,09,14,06,15,14.30
2008,09,14,06,16,14.40
2008,09,14,06,17,14.40
2008,09,14,06,18,14.40
2008,09,14,06,19,14.40
2008,09,14,06,20,14.40
2008,09,14,06,21,14.40
2008,09,14,06,22,14.40
2008,09,14,06,23,14.30
2008,09,14,06,24,14.30
2008,09,14,06,25,14.30
2008,09,14,06,26,14.30
2008,09,14,06,27,14.30
2008,09,14,06,28,14.30
2008,09,14,06,29,14.20
2008,09,14,06,30,14.20
2008,09,14,06,31,14.20
2008,09,14,06,32,14.10
2008,09,14,06,33,14.10
2008,09,14,06,34,14.00
2008,09,14,06,35,14.00
2008,09,14,06,36,13.90
2008,09,14,06,37,13.90
2008,09,14,06,38,13.90
2008,09,14,06,39,13.80
2008,09,14,06,40,13.80
2008,09,14,06,41,13.80
2008,09,14,06,42,13.70
2008,09,14,06,43,13.70
2008,09,14,06,44,13.70
2008,09,14,06,45,13.70
2008,09,14,06,46,13.70
2008,09,14,06,47,13.70
2008,09,14,06,48,13.70
2008,09,14,06,49,13.70
2008,09,14,06,50,13.70
2008,09,14,06,51,13.70
2008,09,14,06,52,13.70
2008,09,14,06,53,13.70
2008,09,14,06,54,13.70
2008,09,14,06,55,13.70
2008,09,14,06,56,13.70
2008,09,14,06,57,13.70
2008,09,14,06,58,13.70
2008,09,14,06,59,13.70
2008,09,14,07,00,13.70
2008,09,14,07,01,13.70
2008,09,14,07,02,13.70
2008,09,14,07,03,13.70
2008,09,14,07,04,13.70
2008,09,14,07,05,13.70
2008,09,14,07,06,13.70
2008,09,14,07,07,13.70
2008,09,14,07,08,13.70
2008,09,14,07,09,13.70
2008,09,14,07,10,13.70
2008,09,14,07,11,13.80
2008,09,14,07,12,13.80
2008,09,14,07,13,13.80
2008,09,14,07,14,13.80
2008,09,14,07,15,13.80
2008,09,14,07,16,13.80
2008,09,14,07,17,13.90
2008,09,14,07,18,13.90
2008,09,14,07,19,13.90
2008,09,14,07,20,13.90
2008,09,14,07,21,13.90
2008,09,14,07,22,13.90
2008,09,14,07,23,14.00
2008,09,14,07,24,14.00
2008,09,14,07,25,14.00
2008,09,14,07,26,14.10
2008,09,14,07,27,14.10
2008,09,14,07,28,14.10
2008,09,14,07,29,14.10
2008,09,14,07,30,14.10
2008,09,14,07,31,14.20
2008,09,14,07,32,14.20
2008,09,14,07,33,14.20
2008,09,14,07,34,14.20
2008,09,14,07,35,14.20
2008,09,14,07,36,14.20
2008,09,14,07,37,14.20
2008,09,14,07,38,14.20
2008,09,14,07,39,14.20
2008,09,14,07,40,14.20
2008,09,14,07,41,14.10
2008,09,14,07,42,14.10
2008,09,14,07,43,14.10
2008,09,14,07,44,14.00
2008,09,14,07,45,14.00
2008,09,14,07,46,14.00
2008,09,14,07,47,14.00
2008,09,14,07,48,14.00
2008,09,14,07,49,14.00
2008,09,14,07,50,14.00
2008,09,14,07,51,14.00
2008,09,14,07,52,14.00
2008,09,14,07,53,14.00
2008,09,14,07,54,14.10
2008,09,14,07,55,14.10
2008,09,14,07,56,14.10
2008,09,14,07,57,14.10
2008,09,14,07,58,14.10
2008,09,14,07,59,14.20
2008,09,14,08,00,14.20
2008,09,14,08,01,14.20
2008,09,14,08,02,14.20
2008,09,14,08,03,14.20
2008,09,14,08,04,14.20
2008,09,14,08,05,14.30
2008,09,14,08,06,14.30
2008,09,14,08,07,14.30
2008,09,14,08,08,14.40
2008,09,14,08,09,14.40
2008,09,14,08,10,14.40
2008,09,14,08,11,14.50
2008,09,14,08,12,14.50
2008,09,14,08,13,14.60
2008,09,14,08,14,14.60
2008,09,14,08,15,14.60
2008,09,14,08,16,14.70
2008,09,14,08,17,14.70
2008,09,14,08,18,14.70
2008,09,14,08,19,14.80
2008,09,14,08,20,14.80
2008,09,14,08,21,14.90
2008,09,14,08,22,15.00
2008,09,14,08,23,15.00
2008,09,14,08,24,15.00
2008,09,14,08,25,15.00
2008,09,14,08,26,15.00
2008,09,14,08,27,15.00
2008,09,14,08,28,15.00
2008,09,14,08,29,15.00
2008,09,14,08,30,15.00
2008,09,14,08,31,15.00
2008,09,14,08,32,15.00
2008,09,14,08,33,15.00
2008,09,14,08,34,15.00
2008,09,14,08,35,15.00
2008,09,14,08,36,15.00
2008,09,14,08,37,15.00
2008,09,14,08,38,15.00
2008,09,14,08,39,15.00
2008,09,14,08,40,15.00
2008,09,14,08,41,15.00
2008,09,14,08,42,15.00
2008,09,14,08,43,15.00
2008,09,14,08,44,15.00
2008,09,14,08,45,15.00
2008,09,14,08,46,15.00
2008,09,14,08,47,15.00
2008,09,14,08,48,15.00
2008,09,14,08,49,15.00
2008,09,14,08,50,15.00
2008,09,14,08,51,15.00
2008,09,14,08,52,15.00
2008,09,14,08,53,15.10
2008,09,14,08,54,15.10
2008,09,14,08,55,15.10
2008,09,14,08,56,15.10
2008,09,14,08,57,15.10
2008,09,14,08,58,15.10
2008,09,14,08,59,15.00
2008,09,14,09,00,15.00
2008,09,14,09,01,15.00
2008,09,14,09,02,15.10
2008,09,14,09,03,15.10
2008,09,14,09,04,15.10
2008,09,14,09,05,15.20
2008,09,14,09,06,15.20
2008,09,14,09,07,15.20
2008,09,14,09,08,15.20
2008,09,14,09,09,15.20
2008,09,14,09,10,15.30
2008,09,14,09,11,15.30
2008,09,14,09,12,15.30
2008,09,14,09,13,15.30
2008,09,14,09,14,15.30
2008,09,14,09,15,15.40
2008,09,14,09,16,15.40
2008,09,14,09,17,15.40
2008,09,14,09,18,15.40
2008,09,14,09,19,15.40
2008,09,14,09,20,15.40
2008,09,14,09,21,15.50
2008,09,14,09,22,15.50
2008,09,14,09,23,15.60
2008,09,14,09,24,15.60
2008,09,14,09,25,15.60
2008,09,14,09,26,15.60
2008,09,14,09,27,15.70
2008,09,14,09,28,15.70
2008,09,14,09,29,15.70
2008,09,14,09,30,15.70
2008,09,14,09,31,15.70
2008,09,14,09,32,15.80
2008,09,14,09,33,15.80
2008,09,14,09,34,15.80
2008,09,14,09,35,15.80
2008,09,14,09,36,15.80
2008,09,14,09,37,15.80
2008,09,14,09,38,15.90
2008,09,14,09,39,15.90
2008,09,14,09,40,15.90
2008,09,14,09,41,15.90
2008,09,14,09,42,15.90
2008,09,14,09,43,16.00
2008,09,14,09,44,16.00
2008,09,14,09,45,16.00
2008,09,14,09,46,16.00
2008,09,14,09,47,16.10
2008,09,14,09,48,16.10
2008,09,14,09,49,16.10
2008,09,14,09,50,16.20
2008,09,14,09,51,16.20
2008,09,14,09,52,16.20
2008,09,14,09,53,16.30
2008,09,14,09,54,16.30
2008,09,14,09,55,16.30
2008,09,14,09,56,16.40
2008,09,14,09,57,16.40
2008,09,14,09,58,16.50
2008,09,14,09,59,16.50
2008,09,14,10,00,16.60
2008,09,14,10,01,16.60
2008,09,14,10,02,16.60
2008,09,14,10,03,16.60
2008,09,14,10,04,16.70
2008,09,14,10,05,16.70
2008,09,14,10,06,16.70
2008,09,14,10,07,16.70
2008,09,14,10,08,16.80
2008,09,14,10,09,16.80
2008,09,14,10,10,16.90
2008,09,14,10,11,16.90
2008,09,14,10,12,17.00
2008,09,14,10,13,17.00
2008,09,14,10,14,17.10
2008,09,14,10,15,17.10
2008,09,14,10,16,17.20
2008,09,14,10,17,17.20
2008,09,14,10,18,17.20
2008,09,14,10,19,17.20
2008,09,14,10,20,17.20
2008,09,14,10,21,17.30
2008,09,14,10,22,17.30
2008,09,14,10,23,17.40
2008,09,14,10,24,17.40
2008,09,14,10,25,17.40
2008,09,14,10,26,17.40
2008,09,14,10,27,17.40
2008,09,14,10,28,17.40
2008,09,14,10,29,17.40
2008,09,14,10,30,17.40
2008,09,14,10,31,17.40
2008,09,14,10,32,17.50
2008,09,14,10,33,17.50
2008,09,14,10,34,17.60
2008,09,14,10,35,17.60
2008,09,14,10,36,17.60
2008,09,14,10,37,17.60
2008,09,14,10,38,17.60
2008,09,14,10,39,17.60
2008,09,14,10,40,17.60
2008,09,14,10,41,17.60
2008,09,14,10,42,17.60
2008,09,14,10,43,17.70
2008,09,14,10,44,17.70
2008,09,14,10,45,17.70
2008,09,14,10,46,17.70
2008,09,14,10,47,17.70
2008,09,14,10,48,17.70
2008,09,14,10,49,17.80
2008,09,14,10,50,17.80
2008,09,14,10,51,17.80
2008,09,14,10,52,17.80
2008,09,14,10,53,17.70
2008,09,14,10,54,17.50
2008,09,14,10,55,17.40
2008,09,14,10,56,17.20
2008,09,14,10,57,17.00
2008,09,14,10,58,16.90
2008,09,14,10,59,16.80
2008,09,14,11,00,16.70
2008,09,14,11,01,16.60
2008,09,14,11,02,16.60
2008,09,14,11,03,16.60
2008,09,14,11,04,16.50
2008,09,14,11,05,16.50
2008,09,14,11,06,16.50
2008,09,14,11,07,16.60
2008,09,14,11,08,16.60
2008,09,14,11,09,16.50
2008,09,14,11,10,16.50
2008,09,14,11,11,16.60
2008,09,14,11,12,16.60
2008,09,14,11,13,16.60
2008,09,14,11,14,16.60
2008,09,14,11,15,16.60
2008,09,14,11,16,16.60
2008,09,14,11,17,16.60
2008,09,14,11,18,16.50
2008,09,14,11,19,16.50
2008,09,14,11,20,16.50
2008,09,14,11,21,16.50
2008,09,14,11,22,16.50
2008,09,14,11,23,16.50
2008,09,14,11,24,16.50
2008,09,14,11,25,16.50
2008,09,14,11,26,16.60
2008,09,14,11,27,16.60
2008,09,14,11,28,16.70
2008,09,14,11,29,16.70
2008,09,14,11,30,16.80
2008,09,14,11,31,16.80
2008,09,14,11,32,16.80
2008,09,14,11,33,16.80
2008,09,14,11,34,16.80
2008,09,14,11,35,16.80
2008,09,14,11,36,16.70
2008,09,14,11,37,16.70
2008,09,14,11,38,16.60
2008,09,14,11,39,16.50
2008,09,14,11,40,16.40
2008,09,14,11,41,16.30
2008,09,14,11,42,16.30
2008,09,14,11,43,16.20
2008,09,14,11,44,16.20
2008,09,14,11,45,16.30
2008,09,14,11,46,16.30
2008,09,14,11,47,16.30
2008,09,14,11,48,16.30
2008,09,14,11,49,16.30
2008,09,14,11,50,16.30
2008,09,14,11,51,16.30
2008,09,14,11,52,16.30
2008,09,14,11,53,16.40
2008,09,14,11,54,16.40
2008,09,14,11,55,16.50
2008,09,14,11,56,16.60
2008,09,14,11,57,16.60
2008,09,14,11,58,16.70
2008,09,14,11,59,16.70
2008,09,14,12,00,16.70
2008,09,14,12,01,16.80
2008,09,14,12,02,16.90
2008,09,14,12,03,16.90
2008,09,14,12,04,16.90
2008,09,14,12,05,17.00
2008,09,14,12,06,17.00
2008,09,14,12,07,17.00
2008,09,14,12,08,17.00
2008,09,14,12,09,16.90
2008,09,14,12,10,16.90
2008,09,14,12,11,16.90
2008,09,14,12,12,16.90
2008,09,14,12,13,16.80
2008,09,14,12,14,16.70
2008,09,14,12,15,16.70
2008,09,14,12,16,16.70
2008,09,14,12,17,16.70
2008,09,14,12,18,16.70
2008,09,14,12,19,16.70
2008,09,14,12,20,16.70
2008,09,14,12,21,16.60
2008,09,14,12,22,16.60
2008,09,14,12,23,16.60
2008,09,14,12,24,16.50
2008,09,14,12,25,16.50
2008,09,14,12,26,16.40
2008,09,14,12,27,16.40
2008,09,14,12,28,16.40
2008,09,14,12,29,16.30
2008,09,14,12,30,16.20
2008,09,14,12,31,16.20
2008,09,14,12,32,16.30
2008,09,14,12,33,16.20
2008,09,14,12,34,16.20
2008,09,14,12,35,16.20
2008,09,14,12,36,16.20
2008,09,14,12,37,16.10
2008,09,14,12,38,16.10
2008,09,14,12,39,16.10
2008,09,14,12,40,16.10
2008,09,14,12,41,16.10
2008,09,14,12,42,16.10
2008,09,14,12,43,16.20
2008,09,14,12,44,16.30
2008,09,14,12,45,16.30
2008,09,14,12,46,16.40
2008,09,14,12,47,16.50
2008,09,14,12,48,16.70
2008,09,14,12,49,16.80
2008,09,14,12,50,16.80
2008,09,14,12,51,16.70
2008,09,14,12,52,16.60
2008,09,14,12,53,16.60
2008,09,14,12,54,16.60
2008,09,14,12,55,16.60
2008,09,14,12,56,16.70
2008,09,14,12,57,16.80
2008,09,14,12,58,16.80
2008,09,14,12,59,16.70
2008,09,14,13,00,16.60
2008,09,14,13,01,16.60
2008,09,14,13,02,16.60
2008,09,14,13,03,16.60
2008,09,14,13,04,16.60
2008,09,14,13,05,16.60
2008,09,14,13,06,16.60
2008,09,14,13,07,16.60
2008,09,14,13,08,16.50
2008,09,14,13,09,16.50
2008,09,14,13,10,16.50
2008,09,14,13,11,16.50
2008,09,14,13,12,16.60
2008,09,14,13,13,16.60
2008,09,14,13,14,16.60
2008,09,14,13,15,16.60
2008,09,14,13,16,16.60
2008,09,14,13,17,16.60
2008,09,14,13,18,16.70
2008,09,14,13,19,16.70
2008,09,14,13,20,16.80
2008,09,14,13,21,16.80
2008,09,14,13,22,16.90
2008,09,14,13,23,17.00
2008,09,14,13,24,17.00
2008,09,14,13,25,17.00
2008,09,14,13,26,17.00
2008,09,14,13,27,17.10
2008,09,14,13,28,17.10
2008,09,14,13,29,17.10
2008,09,14,13,30,17.00
2008,09,14,13,31,17.10
2008,09,14,13,32,17.10
2008,09,14,13,33,17.20
2008,09,14,13,34,17.30
2008,09,14,13,35,17.40
2008,09,14,13,36,17.40
2008,09,14,13,37,17.50
2008,09,14,13,38,17.50
2008,09,14,13,39,17.60
2008,09,14,13,40,17.60
2008,09,14,13,41,17.70
2008,09,14,13,42,17.70
2008,09,14,13,43,17.70
2008,09,14,13,44,17.70
2008,09,14,13,45,17.80
2008,09,14,13,46,17.80
2008,09,14,13,47,17.90
2008,09,14,13,48,17.90
2008,09,14,13,49,17.90
2008,09,14,13,50,17.90
2008,09,14,13,51,18.00
2008,09,14,13,52,18.00
2008,09,14,13,53,17.90
2008,09,14,13,54,17.90
2008,09,14,13,55,18.00
2008,09,14,13,56,18.10
2008,09,14,13,57,18.20
2008,09,14,13,58,18.30
2008,09,14,13,59,18.40
2008,09,14,14,00,18.50
2008,09,14,14,01,18.60
2008,09,14,14,02,18.60
2008,09,14,14,03,18.70
2008,09,14,14,04,18.80
2008,09,14,14,05,18.80
2008,09,14,14,06,18.80
2008,09,14,14,07,18.90
2008,09,14,14,08,19.00
2008,09,14,14,09,19.10
2008,09,14,14,10,19.10
2008,09,14,14,11,19.20
2008,09,14,14,12,19.20
2008,09,14,14,13,19.20
2008,09,14,14,14,19.20
2008,09,14,14,15,19.20
2008,09,14,14,16,19.30
2008,09,14,14,17,19.30
2008,09,14,14,18,19.30
2008,09,14,14,19,19.30
2008,09,14,14,20,19.30
2008,09,14,14,21,19.30
2008,09,14,14,22,19.30
2008,09,14,14,23,19.30
2008,09,14,14,24,19.30
2008,09,14,14,25,19.30
2008,09,14,14,26,19.30
2008,09,14,14,27,19.30
2008,09,14,14,28,19.30
2008,09,14,14,29,19.30
2008,09,14,14,30,19.30
2008,09,14,14,31,19.30
2008,09,14,14,32,19.30
2008,09,14,14,33,19.30
2008,09,14,14,34,19.40
2008,09,14,14,35,19.40
2008,09,14,14,36,19.40
2008,09,14,14,37,19.40
2008,09,14,14,38,19.40
2008,09,14,14,39,19.40
2008,09,14,14,40,19.40
2008,09,14,14,41,19.40
2008,09,14,14,42,19.40
2008,09,14,14,43,19.30
2008,09,14,14,44,19.30
2008,09,14,14,45,19.30
2008,09,14,14,46,19.30
2008,09,14,14,47,19.30
2008,09,14,14,48,19.40
2008,09,14,14,49,19.40
2008,09,14,14,50,19.40
2008,09,14,14,51,19.40
2008,09,14,14,52,19.50
2008,09,14,14,53,19.60
2008,09,14,14,54,19.50
2008,09,14,14,55,19.50
2008,09,14,14,56,19.50
2008,09,14,14,57,19.50
2008,09,14,14,58,19.40
2008,09,14,14,59,19.40
2008,09,14,15,00,19.50
2008,09,14,15,01,19.50
2008,09,14,15,02,19.60
2008,09,14,15,03,19.60
2008,09,14,15,04,19.60
2008,09,14,15,05,19.60
2008,09,14,15,06,19.60
2008,09,14,15,07,19.60
2008,09,14,15,08,19.60
2008,09,14,15,09,19.60
2008,09,14,15,10,19.60
2008,09,14,15,11,19.60
2008,09,14,15,12,19.60
2008,09,14,15,13,19.60
2008,09,14,15,14,19.50
2008,09,14,15,15,19.50
2008,09,14,15,16,19.50
2008,09,14,15,17,19.50
2008,09,14,15,18,19.40
2008,09,14,15,19,19.40
2008,09,14,15,20,19.30
2008,09,14,15,21,19.30
2008,09,14,15,22,19.40
2008,09,14,15,23,19.40
2008,09,14,15,24,19.50
2008,09,14,15,25,19.60
2008,09,14,15,26,19.60
2008,09,14,15,27,19.60
2008,09,14,15,28,19.60
2008,09,14,15,29,19.50
2008,09,14,15,30,19.50
2008,09,14,15,31,19.50
2008,09,14,15,32,19.60
2008,09,14,15,33,19.70
2008,09,14,15,34,19.70
2008,09,14,15,35,19.70
2008,09,14,15,36,19.70
2008,09,14,15,37,19.70
2008,09,14,15,38,19.70
2008,09,14,15,39,19.80
2008,09,14,15,40,19.80
2008,09,14,15,41,19.80
2008,09,14,15,42,19.90
2008,09,14,15,43,19.90
2008,09,14,15,44,20.00
2008,09,14,15,45,20.00
2008,09,14,15,46,20.10
2008,09,14,15,47,20.20
2008,09,14,15,48,20.20
2008,09,14,15,49,20.30
2008,09,14,15,50,20.30
2008,09,14,15,51,20.30
2008,09,14,15,52,20.30
2008,09,14,15,53,20.40
2008,09,14,15,54,20.50
2008,09,14,15,55,20.60
2008,09,14,15,56,20.70
2008,09,14,15,57,20.70
2008,09,14,15,58,20.70
2008,09,14,15,59,20.70
2008,09,14,16,00,20.80
2008,09,14,16,01,20.80
2008,09,14,16,02,20.90
2008,09,14,16,03,20.90
2008,09,14,16,04,20.90
2008,09,14,16,05,21.00
2008,09,14,16,06,21.10
2008,09,14,16,07,21.20
2008,09,14,16,08,21.30
2008,09,14,16,09,21.30
2008,09,14,16,10,21.40
2008,09,14,16,11,21.50
2008,09,14,16,12,21.60
2008,09,14,16,13,21.70
2008,09,14,16,14,21.80
2008,09,14,16,15,21.90
2008,09,14,16,16,22.00
2008,09,14,16,17,22.00
2008,09,14,16,18,22.10
2008,09,14,16,19,22.10
2008,09,14,16,20,22.10
2008,09,14,16,21,22.10
2008,09,14,16,22,22.10
2008,09,14,16,23,22.10
2008,09,14,16,24,22.10
2008,09,14,16,25,22.10
2008,09,14,16,26,22.00
2008,09,14,16,27,21.90
2008,09,14,16,28,21.90
2008,09,14,16,29,21.90
2008,09,14,16,30,21.80
2008,09,14,16,31,21.80
2008,09,14,16,32,21.80
2008,09,14,16,33,21.90
2008,09,14,16,34,22.00
2008,09,14,16,35,22.10
2008,09,14,16,36,22.20
2008,09,14,16,37,22.10
2008,09,14,16,38,22.10
2008,09,14,16,39,22.10
2008,09,14,16,40,22.00
2008,09,14,16,41,21.90
2008,09,14,16,42,21.80
2008,09,14,16,43,21.80
2008,09,14,16,44,21.80
2008,09,14,16,45,21.80
2008,09,14,16,46,21.80
2008,09,14,16,47,21.80
2008,09,14,16,48,21.90
2008,09,14,16,49,21.90
2008,09,14,16,50,21.90
2008,09,14,16,51,21.90
2008,09,14,16,52,21.80
2008,09,14,16,53,21.80
2008,09,14,16,54,21.80
2008,09,14,16,55,21.80
2008,09,14,16,56,21.80
2008,09,14,16,57,21.80
2008,09,14,16,58,21.80
2008,09,14,16,59,21.80
2008,09,14,17,00,21.80
2008,09,14,17,01,21.80
2008,09,14,17,02,21.80
2008,09,14,17,03,21.80
2008,09,14,17,04,21.90
2008,09,14,17,05,21.90
2008,09,14,17,06,22.00
2008,09,14,17,07,22.10
2008,09,14,17,08,22.10
2008,09,14,17,09,22.10
2008,09,14,17,10,22.10
2008,09,14,17,11,22.10
2008,09,14,17,12,22.10
2008,09,14,17,13,22.10
2008,09,14,17,14,22.10
2008,09,14,17,15,22.10
2008,09,14,17,16,22.20
2008,09,14,17,17,22.20
2008,09,14,17,18,22.30
2008,09,14,17,19,22.30